This is the latest recevied weather packets stored in our database for station/object KM4RT-13. If no packets are shown the sender has not sent any weather packets the latest 10 day(s).
| Time | Temp. | Humidity | Pressure | Rain* | Wind** | Luminosity | Snow |
|---|---|---|---|---|---|---|---|
| 1777572530 | 16.67° C | 49% | 1014.8 hPa | 0 mm | - | 539 W/m² | - |
| 1777572225 | 17.22° C | 50% | 1014.7 hPa | 0 mm | - | 560 W/m² | - |
| 1777571921 | 17.22° C | 49% | 1014.8 hPa | 0 mm | - | 659 W/m² | - |
| 1777571616 | 17.22° C | 51% | 1014.7 hPa | 0 mm | - | 669 W/m² | - |
| 1777571314 | 16.67° C | 50% | 1014.9 hPa | 0 mm | - | 722 W/m² | - |
| 1777571009 | 17.22° C | 52% | 1015.2 hPa | 0 mm | - | 596 W/m² | - |
| 1777570706 | 16.67° C | 49% | 1015.3 hPa | 0 mm | - | 500 W/m² | - |
| 1777570402 | 16.67° C | 49% | 1015.1 hPa | 0 mm | - | 617 W/m² | - |
| 1777570098 | 16.67° C | 51% | 1015.2 hPa | 0 mm | - | 471 W/m² | - |
| 1777569795 | 16.67° C | 54% | 1014.9 hPa | 0 mm | - | 547 W/m² | - |
| 1777569490 | 16.67° C | 53% | 1014.9 hPa | 0 mm | - | 544 W/m² | - |
| 1777569187 | 16.11° C | 53% | 1014.8 hPa | 0 mm | - | 605 W/m² | - |
| 1777568883 | 17.22° C | 54% | 1014.8 hPa | 0 mm | - | 494 W/m² | - |
| 1777568580 | 16.67° C | 54% | 1014.9 hPa | 0 mm | - | 517 W/m² | - |
| 1777568278 | 16.67° C | 51% | 1015.2 hPa | 0 mm | - | 506 W/m² | - |
| 1777567974 | 16.67° C | 52% | 1015.2 hPa | 0 mm | - | 673 W/m² | - |
| 1777567671 | 16.11° C | 53% | 1015.1 hPa | 0 mm | - | 607 W/m² | - |
| 1777567368 | 16.11° C | 53% | 1015.3 hPa | 0 mm | - | 454 W/m² | - |
| 1777567066 | 16.11° C | 51% | 1015.1 hPa | 0 mm | - | 677 W/m² | - |
| 1777566764 | 16.11° C | 54% | 1015 hPa | 0 mm | - | 471 W/m² | - |
| 1777566461 | 16.67° C | 53% | 1015.5 hPa | 0 mm | - | 498 W/m² | - |
| 1777566158 | 16.11° C | 55% | 1015.6 hPa | 0 mm | - | 453 W/m² | - |
| 1777565854 | 16.11° C | 52% | 1015.4 hPa | 0 mm | - | 486 W/m² | - |
| 1777565550 | 16.11° C | 54% | 1015.5 hPa | 0 mm | - | 497 W/m² | - |
| 1777565247 | 16.11° C | 56% | 1015.7 hPa | 0 mm | - | 557 W/m² | - |
* Rain latest hour (hover to see other rain measurements)
** Current wind speed in m/s (hover to see current wind gust speed)